Location: Auckland
(36.8670°S, 174.7670°E)
Time: 07:01:27
(UTC+13:00)

NOSS 2-1 (E) - Visible Passes

Search period start: 17 October 2019 00:00
Search period end: 27 October 2019 00:00
Orbit: 462 x 1742 km, 63.3° (Epoch: 04 October)

Date Brightness Start Highest point End Pass type
(mag) Time Alt. Az. Time Alt. Az. Time Alt. Az.
17 Oct 6.6 00:09:53 10° WNW 00:19:40 41° SW 00:29:00 10° SSE visible
17 Oct 7.6 02:08:03 10° WSW 02:13:48 16° SSW 02:19:09 10° SSE visible
17 Oct 7.8 04:07:30 10° S 04:09:33 11° S 04:11:30 10° SSE visible
17 Oct 7.1 05:58:17 10° SSW 06:04:26 22° SSE 06:09:23 10° E visible
17 Oct 5.8 21:32:22 10° N 21:41:54 46° ENE 21:51:39 10° SE visible
17 Oct 6.1 23:22:53 10° NW 23:33:08 56° SW 23:43:06 10° SSE visible
18 Oct 7.5 01:19:21 10° WSW 01:26:36 20° SSW 01:33:21 10° SSE visible
18 Oct 7.8 03:20:03 10° SSW 03:22:05 11° S 03:24:03 10° S visible
18 Oct 7.5 05:12:24 10° SSW 05:17:28 17° SSE 05:21:47 10° ESE visible
18 Oct 6.2 20:47:43 10° NNE 20:56:11 31° ENE 21:04:51 10° SE visible
18 Oct 5.7 22:36:21 10° NW 22:46:46 77° WSW 22:57:06 10° SSE visible
19 Oct 7.2 00:31:06 10° W 00:39:36 27° SW 00:47:34 10° SSE visible
19 Oct 7.9 02:31:18 10° SSW 02:34:37 12° SSW 02:37:46 10° S visible
19 Oct 7.7 04:26:31 10° S 04:30:19 13° SSE 04:33:45 10° SE visible
19 Oct 6.6 20:04:04 10° NE 20:10:39 20° ENE 20:17:21 10° ESE visible
19 Oct 5.6 21:50:17 10° NNW 22:00:36 79° ENE 22:10:59 10° SE visible
19 Oct 6.9 23:43:21 10° WNW 23:52:46 36° SW 00:01:44 10° SSE visible
20 Oct 7.8 01:42:15 10° SW 01:47:13 14° SSW 01:51:51 10° S visible
20 Oct 7.8 03:40:29 10° S 03:43:01 11° S 03:45:24 10° SSE visible
20 Oct 7.0 05:31:01 10° SSW 05:37:36 26° SE 05:42:47 10° E visible
20 Oct 5.7 21:04:44 10° N 21:14:37 56° ENE 21:24:40 10° SE visible
20 Oct 6.5 22:56:05 10° WNW 23:06:09 48° SW 23:15:51 10° SSE visible
21 Oct 7.7 00:53:23 10° WSW 00:59:57 18° SSW 01:06:02 10° SSE visible
21 Oct 7.9 02:53:44 10° SSW 02:55:35 11° S 02:57:22 10° SSE visible
21 Oct 7.4 04:45:08 10° SSW 04:50:44 19° SSE 04:55:24 10° ESE visible
21 Oct 6.1 20:19:46 10° N 20:28:48 38° ENE 20:38:04 10° SE visible
21 Oct 6.0 22:09:19 10° NW 22:19:42 66° SW 22:29:54 10° SSE visible
22 Oct 7.5 00:04:54 10° W 00:12:50 23° SW 00:20:14 10° SSE visible
22 Oct 8.0 02:05:29 10° SSW 02:08:06 11° S 02:10:37 10° S visible
22 Oct 7.7 03:59:15 10° S 04:03:41 15° SSE 04:07:33 10° SE visible
22 Oct 5.9 05:49:43 10° SSW 05:57:17 45° SE 06:02:46 10° ENE visible
22 Oct 5.7 21:23:02 10° NNW 21:33:26 89° WSW 21:43:50 10° SSE visible
22 Oct 7.2 23:16:54 10° W 23:25:56 31° SW 23:34:25 10° SSE visible
23 Oct 7.9 01:16:30 10° SW 01:20:40 13° SSW 01:24:34 10° S visible
23 Oct 7.9 03:13:18 10° S 03:16:27 12° SSE 03:19:20 10° SE visible
23 Oct 6.7 05:03:44 10° SSW 05:10:44 30° SE 05:16:04 10° E visible
23 Oct 5.7 20:37:13 10° NNW 20:47:21 66° ENE 20:57:37 10° SE visible
23 Oct 6.8 22:29:24 10° WNW 22:39:12 42° SW 22:48:34 10° SSE visible
24 Oct 7.8 00:27:30 10° WSW 00:33:18 16° SSW 00:38:43 10° SSE visible
24 Oct 8.0 02:27:01 10° S 02:29:04 11° S 02:31:01 10° SSE visible
24 Oct 7.2 04:17:51 10° SSW 04:23:57 22° SSE 04:28:55 10° E visible
24 Oct 6.3 21:42:24 10° NW 21:52:40 57° SW 22:02:39 10° SSE visible
24 Oct 7.7 23:38:49 10° WSW 23:46:07 21° SSW 23:52:56 10° SSE visible
25 Oct 8.0 01:39:30 10° SSW 01:41:36 11° S 01:43:36 10° S visible
25 Oct 7.5 03:31:57 10° SSW 03:36:59 16° SSE 03:41:17 10° ESE visible
25 Oct 5.4 05:22:31 10° SSW 05:30:13 56° SE 05:35:43 10° NE visible
25 Oct 5.9 20:55:53 10° NW 21:06:19 78° WSW 21:16:39 10° SSE visible
25 Oct 7.4 22:50:35 10° W 22:59:06 27° SW 23:07:06 10° SSE visible
26 Oct 8.1 00:50:44 10° SSW 00:54:07 12° SSW 00:57:20 10° S visible
26 Oct 7.8 02:46:04 10° S 02:49:50 13° SSE 02:53:14 10° SE visible
26 Oct 6.2 04:36:29 10° SSW 04:43:48 36° SE 04:49:14 10° ENE visible
26 Oct 5.7 20:09:50 10° NNW 20:20:09 78° ENE 20:30:31 10° SE visible
26 Oct 7.1 22:02:50 10° WNW 22:12:18 36° SW 22:21:17 10° SSE visible
